Temperature
23 22 22 22 21 21 21 20 20 20 19 19 19 19 19 19 18 18 18 18 18 18 19 18 18 18 18 18 18 18 18 18 18 18 18 18 18 18 18 18 18 18 17
23 22 22 22 21 21 20 20 20 20 19 19 19 19 19 18 18 18 18 18 18 18 18 18 18 18 18 18 18 18 18 18 18 18 18 17 18 18 18 17 18 18 18
23 22 22 22 21 21 20 20 20 20 19 19 19 19 19 18 18 18 18 18 18 18 18 18 18 18 18 18 18 18 18 18 17 17 17 17 17 17 17 17 17 18 18
23 23 22 22 21 21 21 20 20 20 20 19 19 19 19 18 18 18 18 18 18 18 18 18 18 18 18 18 17 17 17 17 17 17 17 17 17 17 17 17 17 17 17
23 23 23 22 22 21 21 20 20 20 20 19 19 19 19 19 18 18 18 18 18 18 18 18 18 18 18 17 17 17 17 17 17 17 17 17 17 17 17 17 17 17 17
23 23 22 22 22 21 21 21 20 20 20 19 19 19 19 19 18 18 18 18 18 18 18 18 18 17 17 17 17 17 17 17 17 17 17 17 16 16 16 16 17 17 17
23 22 22 22 21 21 21 21 20 20 20 19 19 19 19 19 19 18 18 18 18 18 18 17 17 17 17 17 17 17 17 17 17 17 16 16 16 16 16 16 16 16 17
23 22 22 22 21 21 21 21 20 20 20 20 19 19 19 19 18 18 18 18 18 18 17 17 17 17 17 17 17 17 17 17 16 16 16 16 16 16 16 16 16 16 16
22 22 22 22 21 21 21 20 20 20 20 19 19 19 19 18 18 18 18 18 17 17 17 17 17 17 17 17 17 16 16 16 16 16 16 16 16 16 16 15 15 15 15
22 22 22 21 21 21 20 20 20 20 19 19 19 19 18 18 18 18 18 17 17 17 17 17 17 17 16 16 16 16 16 16 16 16 16 16 15 15 15 15 15 15 15
22 22 22 21 21 21 20 20 20 20 19 19 19 19 18 18 18 18 17 17 17 17 17 17 16 16 16 16 16 16 16 16 15 15 15 15 15 15 15 15 15 15 14
22 22 21 21 21 20 20 20 20 19 19 19 19 19 18 18 18 17 17 17 17 17 17 17 16 16 16 16 16 15 15 15 15 15 15 15 15 15 14 14 14 14 14
21 21 21 21 21 20 20 20 20 19 19 19 19 18 18 18 18 17 17 17 17 17 16 16 16 16 16 15 15 15 15 15 15 14 14 14 14 14 14 14 14 14 14
21 21 20 20 20 20 20 20 20 19 19 18 18 18 18 17 17 17 17 17 16 16 16 16 16 15 15 15 15 15 15 14 14 14 14 14 14 14 14 14 14 14 14
21 21 20 20 20 20 20 19 19 19 18 18 18 18 17 17 17 17 16 16 16 16 16 16 15 15 15 15 15 14 14 14 14 14 14 14 14 14 13 13 13 13 13
21 21 20 20 20 19 19 19 19 18 18 18 18 17 17 17 17 16 16 16 16 16 15 15 15 15 15 14 14 14 14 14 14 14 14 14 13 13 13 13 13 13 13
21 21 20 20 20 19 19 19 18 18 18 18 17 17 17 16 16 16 16 15 15 15 15 15 15 14 14 14 14 14 14 14 14 13 13 13 13 13 13 13 13 13 13
21 21 20 20 19 19 19 19 18 18 18 17 17 16 16 16 16 16 15 15 15 15 15 14 14 14 14 14 14 14 13 13 13 13 13 13 13 13 13 13 13 12 12
21 20 20 20 19 19 18 18 18 17 17 17 16 16 16 16 15 15 15 15 15 14 14 14 14 14 14 14 14 13 13 13 13 13 13 13 13 13 13 12 12 12 12
20 20 19 19 19 18 18 18 17 17 17 16 16 16 16 15 15 15 15 14 14 14 14 14 14 14 14 14 13 13 13 13 13 13 13 13 13 13 12 12 12 12 12
19 19 19 18 18 18 17 17 17 17 16 16 16 16 15 15 15 15 14 14 14 14 14 14 14 13 13 13 13 13 13 13 13 13 13 13 13 12 12 12 12 12 12
19 19 18 18 17 17 17 17 16 16 16 15 15 15 15 14 14 14 14 14 14 14 14 14 13 13 13 13 13 13 13 12 12 12 12 12 12 12 12 12 12 12 12
18 18 18 17 17 16 16 16 16 16 15 15 15 14 14 14 14 14 14 14 14 13 13 13 13 13 13 13 13 13 12 12 12 12 12 12 12 12 12 12 12 12 12
18 17 17 17 16 16 16 16 15 15 15 14 14 14 14 14 14 14 14 13 13 13 13 13 13 13 13 12 12 12 12 12 12 12 12 11 12 11 11 11 11 11 11
17 17 17 16 16 16 15 15 15 15 14 14 14 14 14 14 13 13 13 13 13 13 13 13 13 12 12 12 12 12 12 11 11 11 11 11 11 11 11 11 11 11 11
16 16 16 16 15 15 15 15 15 14 14 14 14 13 13 13 13 13 13 13 13 13 13 13 12 12 12 12 11 11 11 11 11 11 11 11 10 10 10 10 10 10 10
Wind_Speed
8 9 9 9 8 7 7 6 5 3 3 2 2 2 1 0 1 1 1 1 1 2 2 2 2 2 2 1 1 1 2 2 1 2 2 3 2 0 1 2 2 3 5
7 8 8 8 8 7 7 6 5 4 3 2 2 2 2 1 1 0 1 1 1 1 2 2 1 1 2 2 2 2 1 1 2 1 1 2 3 2 1 1 2 3 3
12 10 8 7 7 7 7 7 5 4 3 2 2 2 2 2 2 1 1 1 1 1 1 1 1 1 1 1 1 1 2 1 2 1 2 1 2 2 2 1 1 1 2
9 9 9 8 8 8 7 6 6 5 3 3 3 3 2 1 1 1 0 1 1 2 2 1 1 1 1 1 1 1 1 1 1 1 0 1 2 1 2 3 1 2 2
9 9 9 9 8 8 7 6 5 5 4 4 4 4 2 1 0 0 1 1 2 1 2 2 2 2 1 1 1 1 1 1 1 0 1 1 1 1 1 2 3 2 2
8 7 7 7 7 6 6 6 5 4 3 4 4 4 3 2 1 1 0 0 1 1 2 1 1 1 1 1 1 1 1 1 1 1 1 1 0 1 1 1 2 3 3
7 7 7 7 7 7 7 6 6 4 4 3 3 3 4 3 3 2 2 1 0 0 1 1 1 1 1 1 1 2 2 2 1 1 0 0 0 1 1 1 1 2 3
6 7 7 7 8 8 7 7 7 5 4 4 3 3 3 2 2 3 2 2 2 1 1 1 1 1 1 1 1 2 2 2 2 2 1 1 1 1 0 1 1 1 2
6 6 6 6 6 7 7 7 7 6 5 5 5 3 3 3 2 2 2 1 1 1 1 1 1 1 1 1 1 1 1 1 1 1 2 1 2 1 1 1 1 2 1
6 6 5 5 5 5 5 5 6 6 5 5 5 4 3 3 2 2 2 1 1 1 2 1 1 1 1 1 1 0 1 1 1 1 2 2 2 2 2 1 1 1 3
7 6 5 5 5 5 4 4 4 3 3 4 4 3 3 3 3 2 2 2 1 1 1 1 1 1 0 0 0 0 1 1 1 1 1 2 2 1 2 1 1 1 1
6 6 6 6 5 5 5 4 3 3 2 3 3 3 2 2 2 2 1 2 2 1 2 1 1 1 0 0 0 1 1 0 1 2 1 2 2 1 2 1 1 1 1
6 5 5 5 5 4 4 4 3 3 2 2 2 2 2 2 2 2 1 2 2 1 1 2 1 0 0 0 0 1 1 1 2 2 2 2 1 2 2 2 2 2 2
6 5 4 4 5 4 4 4 4 3 3 3 3 2 1 2 2 2 1 1 2 2 1 1 1 1 0 0 1 1 1 1 2 2 3 3 3 3 3 3 3 2 2
6 6 5 4 4 4 4 4 4 3 3 3 3 1 1 1 1 1 1 1 2 2 2 1 1 0 0 1 1 1 1 2 3 3 4 4 4 5 4 3 3 2 2
6 6 5 4 4 5 4 4 4 4 4 4 2 1 1 1 2 1 1 1 0 1 1 1 1 1 2 2 1 1 2 2 3 4 5 5 4 5 6 6 4 3 3
6 6 6 6 5 6 6 5 5 4 4 4 3 2 2 2 1 1 2 1 1 1 0 1 1 2 3 2 2 1 1 2 3 4 4 4 4 4 4 5 6 6 6
5 5 5 5 4 4 5 5 5 4 4 3 2 2 2 2 1 1 1 1 0 0 0 1 1 1 2 2 2 2 2 2 3 4 3 4 4 5 3 3 4 5 6
4 4 5 5 5 5 5 5 4 4 4 3 3 2 2 2 1 1 1 1 1 1 1 1 1 1 3 3 2 2 2 2 4 4 3 3 4 5 4 3 4 6 6
3 4 4 5 5 4 5 6 4 4 3 3 3 3 2 2 2 2 1 1 1 1 1 1 1 1 2 3 3 2 1 2 4 4 4 5 5 6 4 3 4 6 6
4 4 5 4 3 4 5 5 4 4 4 3 2 2 2 2 2 1 1 1 1 1 1 1 2 1 2 3 3 2 1 2 3 3 4 4 7 7 6 5 4 7 6
4 5 4 2 1 3 4 4 3 3 2 2 2 1 1 1 0 0 1 1 0 0 2 1 2 2 2 3 4 4 3 2 2 3 4 5 8 8 7 5 6 7 4
4 4 5 3 1 2 3 3 2 2 3 2 1 1 0 0 0 0 0 1 1 0 1 1 1 2 3 4 5 5 5 4 2 3 6 7 8 7 5 5 6 4 2
4 4 4 3 1 1 2 3 2 2 3 2 1 1 0 0 1 1 0 1 0 0 1 1 1 2 3 3 4 4 4 5 4 4 6 7 6 5 5 5 4 3 2
3 4 4 3 2 2 2 2 2 2 2 2 1 0 0 1 1 1 1 1 2 2 3 2 2 1 3 5 5 3 3 3 3 3 2 2 3 4 4 4 4 3 3
3 3 3 3 2 2 1 0 1 2 2 1 1 1 1 1 1 1 2 3 1 0 3 4 3 2 3 5 5 5 6 5 3 1 1 2 3 3 3 3 4 3 3
Wind_Direction
163 152 152 156 153 152 147 146 137 138 130 126 138 143 161 269 9 53 93 101 104 99 98 67 48 49 67 54 43 53 31 17 28 50 10 354 344 328 199 207 199 211 213
157 160 161 158 157 159 158 154 150 151 151 159 167 162 156 173 182 45 79 99 93 81 92 80 61 56 64 43 42 58 58 15 44 90 63 354 342 334 269 210 207 223 218
170 168 165 162 159 166 165 159 156 150 148 123 91 77 60 42 34 34 34 36 91 83 80 89 98 68 90 71 39 49 85 41 349 70 121 139 249 300 315 271 240 236 223
163 166 165 163 166 167 161 154 152 146 139 124 118 123 126 147 223 223 135 27 46 60 61 70 87 79 74 66 20 59 62 105 347 318 319 176 173 167 302 321 298 258 246
164 165 166 165 161 158 158 155 148 150 153 151 151 143 140 167 190 74 65 31 12 25 49 66 67 65 59 58 36 36 33 88 137 285 291 314 9 100 161 286 313 314 273
161 163 162 152 150 154 153 152 148 152 155 155 158 157 159 155 139 139 141 323 330 357 13 62 64 68 61 45 28 39 48 48 69 63 75 121 135 245 184 229 284 291 286
156 154 157 158 162 161 162 159 157 163 166 162 166 176 173 164 175 187 195 200 216 296 309 69 79 88 63 53 52 55 40 37 54 53 21 55 269 214 172 171 256 284 294
146 147 153 163 170 167 164 163 166 174 177 176 184 184 169 168 193 198 191 194 202 204 181 128 97 75 64 50 55 52 35 42 38 24 22 27 354 24 117 172 164 318 315
148 150 148 152 158 159 166 170 172 178 183 187 188 187 183 179 190 205 183 186 190 162 131 127 112 72 64 49 71 55 13 32 31 12 18 23 357 10 7 55 147 164 253
136 141 142 146 151 155 161 163 171 185 192 194 194 185 186 186 182 173 173 166 149 128 122 125 114 77 69 46 78 60 7 36 1 13 28 14 352 358 7 12 21 149 177
141 146 151 152 146 139 141 149 164 176 180 185 186 184 185 177 171 181 188 162 130 111 114 129 132 134 126 289 68 352 31 31 350 357 15 333 343 358 351 354 353 336 171
136 144 150 144 133 134 144 148 153 156 169 173 163 165 166 154 162 191 184 153 156 162 147 133 127 135 43 35 120 267 308 296 309 304 311 304 326 339 324 326 310 281 247
125 125 131 140 139 141 145 150 152 156 149 132 132 136 157 158 173 198 186 158 168 180 156 135 132 125 339 337 257 229 252 249 254 258 251 268 283 293 287 285 283 278 296
132 136 136 147 150 152 156 155 154 158 145 131 120 110 134 170 191 191 176 175 174 170 173 158 166 185 234 296 287 250 259 269 270 262 247 255 251 253 261 274 275 275 284
144 152 151 151 159 153 153 149 152 149 141 132 127 136 131 124 125 117 145 168 178 184 180 164 181 232 247 276 267 258 254 269 282 284 270 262 257 255 255 268 267 266 263
163 155 155 161 166 164 159 148 139 139 132 132 144 145 119 111 106 100 97 99 133 193 153 155 183 237 269 276 274 253 266 268 271 278 279 277 276 285 278 278 275 252 245
160 161 171 180 179 174 162 154 158 146 131 132 135 123 114 104 110 116 91 84 67 74 143 203 224 256 276 289 310 302 275 278 274 270 276 285 299 301 296 291 293 287 270
161 165 168 168 166 160 153 152 142 134 131 131 136 131 121 109 90 89 101 144 138 195 224 240 245 265 293 306 302 306 300 289 284 273 262 261 282 295 297 304 307 297 287
151 154 157 154 148 149 151 137 129 129 130 141 154 160 149 137 129 147 200 216 218 253 251 251 231 262 294 304 308 324 310 297 294 289 284 274 275 292 297 297 297 299 294
125 122 126 122 137 149 141 133 137 135 149 165 170 166 155 155 181 209 226 242 216 223 241 277 259 252 285 304 321 344 313 305 301 301 296 293 288 298 299 277 281 289 289
120 110 107 118 144 147 136 139 148 165 174 163 146 136 146 167 191 198 241 246 238 266 284 279 299 297 291 319 333 339 337 291 294 301 300 298 305 305 298 282 267 270 281
117 113 105 97 118 135 134 144 171 182 152 138 131 145 162 178 130 123 305 305 254 323 319 326 336 329 321 325 325 328 323 309 276 287 293 299 309 308 304 296 291 294 296
119 119 120 113 80 110 126 136 175 146 122 117 125 180 232 334 99 178 279 331 341 352 320 330 312 311 318 323 330 331 328 325 297 288 303 313 318 318 314 313 315 315 314
123 119 122 124 101 74 97 129 147 135 127 139 188 218 208 338 327 324 220 182 205 231 260 262 277 302 314 318 327 332 335 339 329 314 315 319 326 336 331 331 334 331 312
130 132 134 136 130 89 78 99 103 111 125 151 176 249 267 262 300 296 274 226 222 201 194 216 218 236 286 290 292 310 319 317 304 317 331 353 351 347 343 339 337 335 335
132 119 114 131 137 121 117 121 106 119 129 152 192 207 220 268 270 274 325 348 339 233 182 177 182 231 253 296 319 323 313 309 317 38 355 340 334 328 326 329 330 330 321
Height
1510 1511 1512 1513 1513 1514 1514 1514 1515 1516 1517 1517 1517 1518 1518 1518 1518 1518 1518 1517 1517 1517 1516 1515 1514 1514 1513 1513 1512 1511 1511 1510 1510 1509 1509 1509 1508 1508 1508 1508 1508 1508 1509
1509 1510 1510 1511 1512 1513 1514 1514 1515 1516 1516 1517 1517 1518 1518 1518 1518 1518 1518 1517 1517 1516 1516 1515 1514 1514 1513 1513 1512 1511 1510 1510 1510 1509 1508 1508 1509 1508 1508 1508 1508 1508 1508
1506 1508 1510 1511 1512 1513 1513 1514 1515 1516 1516 1517 1518 1518 1518 1518 1518 1517 1517 1517 1517 1516 1515 1515 1514 1514 1513 1512 1512 1511 1510 1510 1510 1509 1509 1508 1507 1507 1507 1507 1507 1507 1507
1506 1507 1508 1510 1511 1512 1513 1514 1515 1515 1516 1516 1517 1517 1517 1517 1517 1517 1517 1517 1516 1516 1515 1515 1514 1513 1513 1512 1511 1511 1510 1509 1509 1509 1509 1509 1508 1507 1506 1506 1506 1506 1506
1505 1506 1507 1508 1510 1511 1512 1513 1514 1515 1516 1516 1517 1517 1517 1517 1517 1517 1517 1516 1516 1515 1515 1514 1513 1513 1512 1511 1511 1510 1509 1509 1508 1508 1508 1507 1507 1507 1506 1504 1504 1504 1504
1504 1506 1507 1508 1509 1511 1512 1513 1514 1514 1515 1515 1516 1516 1516 1516 1516 1517 1516 1516 1515 1515 1514 1514 1513 1512 1511 1510 1510 1509 1508 1508 1508 1507 1507 1506 1506 1505 1505 1504 1503 1502 1502
1504 1506 1507 1508 1509 1510 1511 1512 1513 1514 1514 1515 1514 1514 1515 1515 1516 1516 1516 1515 1515 1514 1514 1513 1512 1511 1511 1510 1509 1508 1508 1507 1507 1506 1506 1505 1505 1505 1504 1503 1502 1501 1500
1504 1505 1507 1508 1509 1510 1511 1512 1512 1513 1514 1514 1514 1514 1514 1514 1514 1514 1514 1514 1513 1513 1512 1512 1511 1511 1510 1509 1508 1507 1507 1506 1505 1505 1504 1504 1504 1503 1502 1502 1501 1500 1499
1504 1505 1506 1508 1509 1509 1510 1511 1512 1513 1513 1513 1513 1513 1513 1513 1513 1513 1513 1512 1512 1512 1511 1511 1510 1510 1509 1508 1507 1506 1505 1505 1504 1503 1503 1502 1502 1501 1501 1500 1499 1499 1497
1504 1505 1506 1507 1508 1509 1510 1511 1511 1512 1512 1512 1512 1512 1512 1512 1512 1512 1511 1511 1510 1510 1510 1509 1509 1508 1507 1507 1506 1505 1504 1503 1503 1502 1501 1500 1500 1499 1499 1498 1497 1497 1496
1503 1504 1506 1507 1507 1508 1509 1510 1510 1511 1511 1511 1511 1510 1510 1510 1510 1510 1510 1509 1509 1509 1508 1508 1507 1506 1506 1505 1504 1503 1503 1502 1501 1500 1499 1499 1498 1497 1497 1496 1495 1494 1494
1503 1504 1505 1506 1507 1507 1508 1509 1509 1509 1509 1510 1509 1509 1509 1509 1508 1508 1508 1508 1508 1507 1506 1505 1505 1504 1504 1503 1502 1501 1501 1500 1499 1498 1497 1497 1496 1495 1494 1493 1492 1491 1490
1503 1504 1504 1505 1505 1506 1507 1508 1508 1508 1508 1508 1508 1507 1507 1507 1506 1506 1506 1506 1506 1505 1504 1504 1503 1502 1501 1500 1500 1499 1499 1498 1497 1496 1495 1494 1493 1492 1491 1490 1489 1488 1487
1502 1503 1504 1504 1505 1505 1506 1506 1506 1507 1507 1507 1507 1506 1505 1505 1504 1504 1504 1504 1503 1502 1501 1501 1500 1500 1499 1498 1498 1497 1496 1496 1495 1493 1492 1491 1490 1489 1488 1487 1486 1485 1484
1501 1502 1502 1503 1504 1504 1505 1505 1505 1506 1506 1505 1505 1504 1504 1503 1502 1502 1502 1501 1501 1499 1499 1499 1498 1498 1497 1496 1496 1495 1494 1493 1492 1491 1490 1489 1488 1486 1485 1484 1482 1481 1480
1499 1500 1501 1502 1502 1503 1503 1503 1503 1504 1504 1503 1503 1503 1502 1501 1500 1500 1499 1499 1499 1498 1497 1496 1496 1495 1495 1494 1494 1493 1492 1490 1489 1488 1487 1486 1485 1483 1482 1481 1479 1478 1476
1497 1498 1499 1500 1500 1501 1501 1501 1501 1502 1502 1502 1501 1501 1500 1499 1499 1498 1498 1497 1497 1496 1495 1494 1494 1493 1492 1492 1491 1490 1489 1487 1486 1485 1484 1483 1482 1480 1479 1477 1475 1474 1473
1494 1495 1497 1498 1499 1499 1499 1500 1500 1500 1500 1499 1499 1499 1498 1498 1497 1497 1497 1496 1495 1495 1494 1493 1492 1491 1490 1489 1488 1487 1486 1485 1483 1482 1481 1480 1478 1477 1475 1473 1471 1470 1468
1493 1493 1495 1496 1497 1497 1498 1498 1498 1498 1498 1498 1497 1497 1497 1496 1496 1495 1494 1494 1494 1493 1492 1491 1490 1489 1488 1487 1486 1484 1483 1481 1480 1479 1478 1476 1475 1473 1472 1470 1468 1466 1464
1492 1493 1493 1494 1495 1495 1496 1496 1495 1496 1495 1495 1495 1495 1495 1494 1494 1493 1493 1492 1492 1491 1490 1489 1488 1487 1486 1485 1483 1482 1480 1478 1477 1475 1474 1473 1471 1470 1468 1466 1464 1462 1460
1492 1492 1492 1493 1493 1494 1494 1493 1493 1493 1493 1493 1493 1493 1493 1492 1492 1491 1491 1490 1490 1489 1488 1487 1486 1485 1484 1482 1481 1480 1478 1476 1474 1472 1471 1470 1468 1466 1464 1462 1460 1458 1457
1491 1491 1491 1492 1492 1492 1492 1491 1491 1491 1491 1492 1492 1491 1490 1490 1490 1490 1489 1489 1488 1487 1486 1485 1483 1482 1481 1480 1479 1477 1476 1474 1472 1470 1468 1467 1465 1463 1461 1459 1457 1456 1454
1489 1490 1490 1491 1491 1491 1490 1490 1490 1490 1489 1490 1490 1490 1489 1488 1488 1488 1487 1486 1486 1485 1484 1483 1482 1480 1479 1478 1477 1475 1473 1471 1469 1467 1466 1464 1462 1460 1458 1456 1454 1453 1451
1488 1488 1489 1489 1489 1489 1489 1489 1489 1488 1488 1488 1488 1488 1487 1487 1486 1486 1485 1484 1483 1483 1482 1481 1480 1479 1478 1476 1474 1472 1471 1469 1467 1466 1464 1462 1460 1458 1456 1454 1452 1450 1448
1487 1487 1487 1487 1487 1488 1488 1488 1488 1487 1487 1487 1486 1486 1486 1485 1484 1484 1483 1482 1481 1481 1480 1479 1479 1477 1476 1474 1473 1471 1468 1467 1465 1463 1461 1459 1457 1455 1453 1451 1449 1447 1446
1486 1485 1486 1486 1486 1487 1487 1487 1487 1486 1486 1485 1485 1485 1484 1483 1482 1481 1480 1480 1480 1479 1478 1477 1476 1475 1474 1472 1471 1468 1466 1464 1463 1460 1458 1456 1454 1452 1451 1449 1447 1445 1443